STARLINK-5939, 56015

Orbit data source: Space-Track

STARLINK-5939, 56015 is a payload satellite owned by SpaceX/Seattle (US) in LEO that was launched on Fri, 24 Mar 2023 UTC via an FALCON 9 launch vehicle from the Air Force Eastern Test Range (AFETR). Payload-class satellites include a variety of spacecraft equipped with specific instruments for various scientific and technological missions. These include communications satellites like Starlink; space stations such as the ISS; scientific satellites like the Hubble; Earth observation satellites from companies like Planet Labs, Umbra, and HawkEye 360; GPS; miniature CubeSats for education and research; and military/defense satellites.

Loading next visibility...
Identifier
56015, 2023-042AF
Orbit
LEO
Country
Flag of USUS
Related business
Manufacturer
SpaceX/Seattle
Mission
Operational Commercial Communications
Bus & Motor
STARLINK, Unknown motor
Mass
305 kg wet, ~290 kg dry
Launch date (UTC)
2023-03-24 (3 years ago)
Launch vehicle
FALCON 9
Launch site
Air Force Eastern Test Range (AFETR)
Object type
Payload
Rocket body
Debris
Shape & HBR
Box + 1 Pan, 10.1 m
Radar Cross Section
11.087 m², Large (>1 m²)

Expand to show TLE details & history
Last TLE update: 2 days ago

TLE from 2 days ago
0 STARLINK-5939
1 56015U 23042AF  26171.11830317 -.00000282  00000-0 -71230-6 0  9992
2 56015  43.0018 186.5144 0001501 264.6396  95.4284 15.27575321178700
Epoch: 2026-06-20T02:50Z
TLE epoch observation values (Epoch: 2026-06-20T02:50:21.393Z)
Latitude
-0.00007°
Longitude
-124.41232°
Altitude
482.936 km
Speed
7.626 km/s
True Right ascension
12h 26m 03s
True Declination
0° 00' 00"
Sunlit
Object was in daylight at epoch
Visualization orbit readout
Latitude
Unknown
Longitude
Unknown
Altitude
Unknown
Speed
Unknown
Apparent Right ascension
Unknown
Apparent Declination
Unknown
Sunlit
N/A
Visualization observer readout
Local Sidereal Time
21:26:09
Azimuth
Unknown
Elevation
Unknown
Doppler factor
Unknown
Orbital elements
Apogee altitude
486.038 km
Perigee altitude
483.978 km
Semi-major axis
6,863.145 km
Eccentricity
0.00015
Inclination
43.0018°
RAAN
186.5144°
Arg. of periapsis
264.6396°
True anomaly
95.44552°
Mean anomaly
95.4284°
Eccentric anomaly
95.43696°
Mean motion
3.81732 °/min
Orbital period
94.31 mins
BSTAR
-7.123e-7
Loading maneuver chart data...
Computing Atmospheric mass density...
Loading historical data...
Loading historical data...
Loading historical data...
Loading historical data...
Loading historical data...
Loading historical data...
Loading historical data...

Documentation

Showing up to 5 results
|